Regional Weather Roundup
Issued by NWS

Home | Current Version | Previous Version | Graphics & Text | Print | Product List | Glossary On
Versions: 1 2 3 4 5 6 7 8 9 10 11 12 13 14 15 16 17 18 19 20 21 22 23 24 25 26 27 28 29 30 31 32 33 34 35 36 37 38 39 40 41 42 43 44 45 46 47 48 49 50
491
ASUS43 KTOP 222008
RWRKS

WEATHER ROUNDUP FOR KANSAS
NATIONAL WEATHER SERVICE GOODLAND KS
300 PM CDT WED MAR 22 2017

NOTE:  "FAIR" INDICATES FEW OR NO CLOUDS BELOW 12,000 FEET WITH NO
SIGNIFICANT WEATHER AND/OR OBSTRUCTIONS TO VISIBILITY.

KSZ001>006-013>018-027>032-041>047-222100-
NORTHWEST KANSAS

CITY           SKY/WX    TMP DP  RH WIND       PRES   REMARKS
GOODLAND       CLOUDY    55  36  48 S24       30.03F
HAYS             N/A     51  29  42 SE14      30.15F
HILL CITY      CLOUDY    54  31  41 S12G24    30.13F
RUSSELL        CLOUDY    52  30  43 SE15      30.15F
$$

KSZ061>065-074>080-084>089-222100-
SOUTHWEST KANSAS

CITY           SKY/WX    TMP DP  RH WIND       PRES   REMARKS
DODGE CITY     CLOUDY    57  34  41 SE15G22   30.11F
ELKHART          N/A     62  39  42 S16         N/A
GARDEN CITY    PTSUNNY   58  37  45 S14G24    30.07F
GREAT BEND     CLOUDY    54  32  43 SE12      30.15F
LIBERAL        SUNNY     63  37  39 SE12G18   30.10F
PRATT          CLOUDY    50  32  50 SE10      30.14F
$$

KSZ066>073-081>083-090>101-222100-
SOUTHEAST KANSAS

CITY           SKY/WX    TMP DP  RH WIND       PRES   REMARKS
CHANUTE        CLOUDY    57  29  34 E13       30.22F
COFFEYVILLE    CLOUDY    58  38  47 E10       30.21F
HUTCHINSON     CLOUDY    55  33  43 SE12      30.16F
MEDICINE LODGE   N/A     53  34  48 SE9       30.14F
NEWTON         CLOUDY    53  30  41 SE14      30.18F
PARSONS        CLOUDY    58  32  37 MISG      30.22F
WICHITA INTL   CLOUDY    55  34  45 SE10      30.17F
WICHITA JABRA  CLOUDY    55  32  41 SE10      30.17F
WICHITA MCCONL CLOUDY    56  32  41 E10       30.16F
WINFIELD       CLOUDY    58  39  49 E12       30.17F
$$

KSZ007>012-019>026-033>040-048>060-102>105-222100-
NORTHEAST KANSAS

CITY           SKY/WX    TMP DP  RH WIND       PRES   REMARKS
CONCORDIA      CLOUDY    53  23  31 SE15G26   30.18F
EMPORIA        CLOUDY    55  28  35 E17G25    30.19F
LAWRENCE       CLOUDY    58  23  26 E16G22    30.27F
MANHATTAN      PTSUNNY   60  22  23 SE17G23   30.20F
MARYSVILLE     PTSUNNY   57  19  23 SE16G24   30.21F
OLATHE IND     MOSUNNY   56  26  31 E15G22    30.27F
OLATHE EXE     CLOUDY    54  27  35 E15       30.27F
SALINA         CLOUDY    59  26  28 SE16      30.17F
TOPEKA BILLARD SUNNY     58  21  24 E13G26    30.24F
TOPEKA FORBES  SUNNY     59  24  26 E15       30.23F
$$




USA.gov is the U.S. government's official web portal to all federal, state and local government web resources and services.